Location: Middle Street
(51.7167°N, 0.0333°E)
Time: 19:55:38
(UTC+00:00)

SL-14 R/B - Pass Details

Date: 20 January 2021
Orbit: 520 x 553 km, 82.4° (Epoch: 27 February)

Event Time Altitude Azimuth Distance (km) Brightness Sun altitude
Rises 17:00:00 0° 168° (SSE) 2,644 7.0 -5.2°
Reaches altitude 10° 17:02:13 10° 161° (SSE) 1,765 6.0 -5.5°
Maximum altitude 17:05:48 37° 93° (E) 833 3.8 -6.0°
Drops below altitude 10° 17:09:27 10° 25° (NNE) 1,796 5.5 -6.5°
Sets 17:11:43 0° 17° (NNE) 2,698 6.4 -6.8°
